Vertical_Velocity
-1 -1 -1 -1 -0 0 1 1 1 0 -0 -0 0 -0 -0 -1 -1 -0 1 2 1 -0 -1 -0 0 1 -0 -1 -2 -2 -1 -0 -0 -0 -0 -0 -1 -1 -0 0 1 2 2 2 2 1 1 1 2 2 2 2 4 4 4 3 4 4 4 1 -0 -1 -0 0 2 4 5 5 3
-1 -1 -1 -1 -0 0 1 1 1 0 -0 -1 -0 0 0 -0 -1 -1 -0 1 1 1 1 2 2 2 1 -0 -1 -1 -0 -0 -1 -1 -1 -0 -0 -0 -0 1 1 2 2 2 2 2 1 1 2 2 2 2 3 3 3 3 4 5 4 1 -0 -0 -0 -0 1 3 5 5 5
-1 -1 -1 -0 -0 0 0 0 -0 -1 -1 -1 -0 0 1 0 -0 -1 -1 -1 -0 1 3 4 3 2 2 0 -0 0 1 1 -0 -1 -1 -1 -0 -0 0 1 2 3 3 3 3 3 2 2 2 2 2 2 2 2 2 2 4 4 3 -0 0 0 0 -1 1 3 4 5 6
-1 -1 -0 0 0 -0 -0 -0 -1 -1 -1 -1 -0 0 1 1 0 -0 -1 -1 -1 0 3 5 4 2 1 1 0 1 1 1 -1 -2 -2 -2 -1 -1 -1 -0 1 2 3 3 3 3 3 2 2 2 3 3 2 1 0 1 3 3 2 0 2 2 0 -1 0 2 4 5 7
-1 -1 -0 0 0 -0 -0 -0 -0 -1 -1 -0 0 1 1 2 1 0 -0 -1 -1 -0 1 4 3 2 1 1 1 1 1 1 -1 -3 -3 -2 -2 -2 -2 -3 -2 -0 1 2 3 3 2 2 2 2 3 2 1 -0 -1 0 3 3 2 2 3 3 2 0 1 2 3 5 7
-1 -1 -0 0 0 1 1 1 1 1 0 1 1 2 2 2 2 1 -0 -1 -1 -0 1 2 2 2 2 2 1 1 1 0 -2 -3 -2 -0 -0 -1 -2 -4 -3 -1 1 2 2 2 2 2 2 2 1 1 -0 -1 -0 1 2 3 2 2 3 3 3 2 1 2 3 4 6
-1 -0 -0 0 1 1 1 1 1 1 1 1 1 2 2 2 2 1 -0 -1 -1 0 3 4 2 1 1 1 0 0 1 -0 -2 -2 -0 4 4 1 -1 -2 -2 -1 1 3 3 3 3 3 3 2 1 0 -0 -0 0 1 2 2 2 2 3 3 3 2 2 1 1 2 3
-0 -0 -0 -0 1 1 1 1 0 0 0 1 1 1 1 1 1 0 -1 -1 -2 -0 2 7 6 3 1 -0 -1 -0 -0 -0 -2 -0 3 8 6 4 1 0 -0 -1 -0 1 4 5 5 4 4 3 2 1 1 1 1 1 1 1 1 2 3 3 3 2 2 1 1 0 0
-0 -0 -0 -0 0 1 1 1 0 0 0 1 1 0 -0 -0 -0 -0 -1 -1 -2 -1 4 14 18 17 11 4 0 -1 -1 -1 -1 1 4 8 6 4 2 1 1 -0 -0 0 4 6 7 6 4 3 3 2 2 2 1 1 1 1 1 2 2 2 2 2 1 1 0 0 0
-1 -1 -1 -0 0 0 1 0 -0 -0 -0 0 0 0 -0 -0 -1 -1 -1 -1 1 1 5 18 29 31 25 14 6 1 -2 -2 -1 0 3 6 5 4 2 2 1 1 1 2 5 7 8 8 6 5 4 3 3 2 2 1 1 1 1 1 1 1 1 1 1 1 1 1 1
-1 -1 -1 -0 0 0 0 0 -0 -0 -0 -0 0 0 -0 -0 -1 -0 -0 -0 2 -0 0 11 26 33 31 23 12 5 -0 -2 -2 -1 1 4 4 3 2 2 1 1 2 3 6 7 8 9 8 7 6 4 3 3 2 2 2 2 2 1 1 1 0 0 1 1 1 1 1
-1 -1 -1 -0 0 0 0 0 -0 -1 -1 -0 -0 0 0 -0 -0 -0 -0 -0 -1 -2 -3 1 12 20 23 20 14 8 4 0 -2 -2 -1 1 2 2 2 1 1 1 1 2 5 6 7 8 9 8 7 4 3 2 2 1 2 2 2 2 2 2 1 1 2 2 2 2 2
-1 -1 -0 -0 0 0 0 -0 -1 -1 -1 -1 -1 -0 -0 -0 -0 -0 -0 -0 -1 -2 -2 -2 2 5 8 8 8 6 5 3 -0 -2 -2 -1 -0 0 1 1 1 1 0 1 2 4 5 6 7 7 6 4 3 3 3 3 3 4 5 6 6 5 4 4 3 3 2 2 1
-1 -1 -0 -0 0 0 -0 -0 -1 -1 -1 -1 -1 -1 -0 0 0 0 0 -0 -1 -1 -1 -1 -1 -1 -0 0 1 2 2 2 1 0 -1 -2 -2 -1 -0 0 0 0 0 -0 0 2 4 5 4 4 4 4 5 5 6 7 8 9 10 11 10 9 8 6 5 3 2 1 1
-1 -1 -1 -0 -0 -0 -0 -0 -1 -1 -1 -2 -1 -1 -0 0 0 0 0 -0 -0 -0 -1 -1 -1 -1 -1 -1 -1 -0 -0 0 1 2 2 1 -0 -1 -1 -0 0 1 1 0 0 1 2 3 3 2 2 4 5 7 8 9 10 11 12 11 11 10 10 8 5 3 1 0 1
-1 -1 -1 -1 -0 -0 -0 -0 -1 -1 -1 -2 -1 -1 -0 0 0 0 0 -0 -0 -1 -1 -1 -0 -0 -0 -0 -1 -1 -0 0 2 3 4 4 3 2 1 0 1 2 2 2 2 2 2 2 2 2 2 3 4 5 6 7 8 7 7 6 6 7 8 8 6 3 1 -0 -0
-1 -1 -1 -1 -1 -0 -0 -0 -0 -1 -1 -1 -1 -1 -1 -0 -0 0 -0 -0 -0 -1 -1 -1 -0 -0 -0 -0 -1 -1 -0 1 3 5 6 6 6 5 4 3 3 4 4 5 4 3 2 1 1 1 1 1 2 2 3 3 3 2 1 0 0 1 3 4 4 3 2 0 -1
-1 -1 -1 -1 -1 -1 -0 -0 -0 -0 -1 -1 -1 -1 -1 -0 -0 0 0 -0 -0 -1 -1 -1 -1 -0 -0 -0 -0 -0 -0 1 4 6 7 7 7 7 7 6 6 6 5 4 4 3 3 2 1 -0 -1 -1 -1 -1 -1 -1 -1 -1 -1 -1 -1 -1 -1 0 1 1 1 1 0
-3 -3 -2 -2 -1 -1 -1 -0 -0 -1 -1 -1 -1 -1 -1 -0 0 0 0 0 -0 -1 -1 -1 -1 -1 -0 -0 -0 -1 -1 0 3 5 6 6 6 7 7 8 8 7 6 5 4 4 4 4 3 1 0 -1 -2 -2 -2 -2 -2 -2 -1 0 -0 -0 -1 -1 -1 -1 -0 0 0
-4 -4 -3 -3 -2 -1 -1 -1 -1 -1 -1 -1 -1 -1 -0 -0 0 0 0 -0 -0 -0 -1 -1 -1 -1 -1 -1 -1 -1 -1 -1 1 2 3 3 4 4 5 7 7 8 8 7 6 5 5 5 4 4 3 2 2 1 1 1 2 2 3 4 4 3 3 2 1 -0 -0 -0 0
-3 -3 -3 -3 -2 -2 -1 -1 -1 -1 -1 -1 -1 -1 -0 0 0 0 -0 -0 -0 -0 -1 -1 -1 -1 -2 -2 -2 -2 -2 -1 -0 0 0 1 1 2 2 2 3 4 5 6 5 4 4 4 4 4 4 4 4 4 5 5 6 6 6 6 6 6 6 5 4 3 1 0 -0
-1 -1 -2 -2 -2 -2 -1 -1 -1 -1 -1 -1 -1 -0 -0 -0 -0 -0 -0 -0 -1 -1 -1 -1 -1 -2 -2 -2 -2 -2 -2 -1 -1 -0 -0 0 0 0 -0 -0 -0 0 1 1 1 1 1 1 1 1 1 2 3 4 4 4 4 4 3 3 3 3 2 2 2 2 2 1 0
-0 -0 -1 -1 -1 -1 -1 -1 -1 -1 -1 -1 -0 -0 -1 -1 -1 -1 -1 -1 -1 -1 -1 -1 -1 -1 -1 -1 -1 -1 -1 -1 -1 -1 -0 -0 -0 -0 -0 -0 -1 -1 -0 -0 -1 -1 -1 -1 -1 -1 -1 -0 0 1 1 1 0 -0 -0 -1 -2 -2 -2 -2 -2 -1 -0 -0 0
-0 -1 -1 -1 -1 -1 -1 -1 -1 -1 -1 -1 -1 -1 -1 -2 -2 -1 -1 -1 -1 -1 -1 -1 -1 -1 -1 -1 -1 -1 -1 -1 -1 -1 -1 -1 -1 -0 -0 -0 0 0 0 -0 -0 -1 -1 -1 -1 -1 -1 -1 -1 -1 -1 -1 -1 -1 -2 -2 -3 -3 -3 -4 -3 -2 -1 -0 1
-1 -2 -2 -2 -2 -2 -1 -1 -1 -1 -1 -1 -1 -1 -1 -2 -2 -1 -1 -1 -1 -1 -1 -1 -1 -1 -0 -0 -1 -1 -1 -1 -1 -1 -1 -1 -1 -1 -1 -0 -0 -0 -0 -0 -0 -0 -1 -1 -1 -1 -1 -1 -1 -1 -1 -1 -1 -2 -2 -2 -2 -2 -2 -2 -2 -1 -0 0 1
-2 -2 -3 -3 -2 -2 -2 -1 -1 -1 -1 -1 -1 -1 -1 -2 -1 -1 -1 -1 -1 -1 -1 -1 -1 -0 -0 -0 -1 -1 -1 -1 -1 -1 -1 -1 -1 -1 -1 -1 -1 -1 -0 -0 -0 -0 -0 -0 -0 -0 -0 -0 -0 -0 -0 -1 -1 -1 -1 -1 -1 -1 -1 -0 0 0 1 0 1
-2 -3 -3 -3 -2 -2 -2 -2 -2 -2 -2 -2 -2 -2 -2 -2 -1 -1 -1 -1 -1 -1 -1 -1 -1 -1 -1 -1 -1 -1 -1 -1 -1 -1 -1 -1 -1 -1 -1 -1 -1 -1 -1 -1 -1 -0 -0 -0 0 0 0 0 0 0 -0 -0 0 0 0 0 0 0 0 0 0 0 0 0 0
-2 -2 -2 -2 -2 -2 -2 -2 -2 -2 -2 -3 -3 -2 -2 -1 -1 -1 -1 -1 -1 -1 -1 -1 -1 -1 -1 -1 -1 -1 -1 -1 -1 -1 -1 -1 -2 -2 -2 -2 -2 -2 -1 -1 -1 -1 -0 -0 -0 -0 0 0 0 0 0 1 1 1 1 1 1 1 1 1 1 1 1 1 0
-1 -2 -2 -2 -2 -2 -2 -2 -2 -2 -2 -2 -2 -2 -1 -1 -1 -1 -1 -1 -1 -1 -1 -2 -1 -1 -1 -1 -1 -1 -1 -1 -1 -1 -1 -1 -2 -2 -2 -2 -2 -2 -2 -2 -1 -1 -1 -1 -1 -1 -0 -0 -0 0 0 1 1 1 1 1 1 1 1 2 2 2 2 2 1
-1 -1 -1 -1 -2 -2 -2 -2 -2 -2 -2 -2 -1 -1 -1 -1 -1 -1 -1 -2 -2 -2 -2 -2 -2 -2 -2 -2 -2 -2 -1 -1 -1 -1 -1 -1 -1 -1 -1 -2 -2 -2 -2 -1 -1 -1 -1 -1 -1 -1 -1 -1 -0 -0 0 1 1 1 1 1 2 2 3 3 4 4 4 4 3
-1 -1 -1 -1 -1 -1 -1 -1 -1 -1 -1 -1 -1 -1 -1 -1 -1 -2 -2 -2 -2 -2 -2 -2 -2 -3 -3 -3 -2 -2 -2 -2 -2 -2 -2 -1 -1 -1 -1 -1 -1 -1 -1 -1 -1 -1 -1 -2 -2 -2 -2 -2 -1 -1 -0 0 0 1 1 2 2 3 4 5 5 5 4 4 3
-1 -1 -1 -1 -1 -1 -1 -1 -1 -1 -1 -1 -1 -1 -1 -1 -2 -2 -2 -2 -2 -3 -3 -3 -3 -3 -3 -3 -3 -3 -3 -3 -3 -2 -2 -2 -1 -1 -0 0 -0 -0 -0 -0 -1 -1 -2 -2 -2 -2 -2 -2 -1 -1 -0 -0 0 1 2 2 3 3 3 4 3 3 2 3 3
-1 -1 -1 -1 -2 -1 -1 -1 -1 -1 -1 -1 -1 -1 -2 -2 -2 -2 -2 -2 -3 -3 -3 -3 -3 -3 -3 -3 -3 -3 -3 -3 -2 -2 -1 -1 -0 0 0 0 -0 -1 -1 -1 -2 -2 -2 -2 -2 -2 -2 -2 -1 -1 -0 0 1 2 2 2 1 1 1 1 1 1 1 1 2
-1 -1 -1 -2 -1 -1 -1 -1 -1 -1 -1 -1 -1 -2 -2 -2 -2 -2 -2 -3 -3 -3 -3 -3 -3 -3 -3 -3 -3 -3 -2 -1 -0 1 1 2 1 1 0 -0 -1 -2 -3 -3 -3 -4 -3 -3 -3 -3 -2 -2 -2 -1 0 2 3 2 2 0 -0 -1 -0 -0 0 0 0 1 1
-1 -1 -2 -2 -1 -1 -1 -0 -1 -1 -1 -1 -1 -1 -2 -2 -2 -2 -3 -3 -3 -3 -3 -3 -3 -3 -3 -3 -2 -1 1 2 3 3 3 2 1 -0 -1 -2 -3 -4 -4 -4 -5 -5 -4 -4 -4 -3 -3 -3 -2 -1 1 3 3 2 1 -0 -1 -1 -0 0 0 0 1 1 1
-2 -2 -2 -2 -2 -1 -1 -0 -0 -0 -1 -1 -1 -2 -2 -2 -2 -3 -3 -3 -3 -3 -3 -3 -3 -2 -2 -1 1 3 4 5 4 2 0 -1 -1 -2 -2 -3 -3 -4 -4 -5 -5 -5 -5 -4 -4 -3 -3 -2 -2 -0 1 2 2 2 1 -0 -0 -0 0 1 1 1 1 1 2
-2 -2 -3 -3 -3 -3 -2 -1 -1 -1 -1 -1 -2 -2 -2 -2 -3 -3 -3 -3 -3 -3 -3 -3 -2 -1 0 3 4 5 5 4 1 -1 -2 -2 -2 -1 -1 -2 -3 -4 -4 -5 -4 -4 -4 -4 -3 -3 -2 -2 -2 -1 -0 1 1 1 1 0 0 0 1 1 2 2 2 2 2
-1 -1 -2 -3 -4 -4 -3 -2 -2 -1 -2 -2 -2 -2 -2 -2 -3 -3 -3 -3 -3 -4 -3 -2 -0 2 4 5 5 4 3 1 -1 -2 -2 -1 -0 0 0 -0 -2 -4 -4 -4 -4 -4 -4 -3 -3 -3 -2 -2 -2 -2 -1 -0 0 0 0 0 0 1 1 2 2 2 2 2 3
-0 1 1 -2 -3 -4 -3 -3 -3 -3 -3 -2 -2 -2 -2 -3 -3 -3 -3 -3 -3 -3 -2 -0 2 3 4 4 3 2 0 -1 -1 -1 -1 -0 0 1 1 0 -2 -4 -4 -4 -4 -4 -3 -3 -3 -3 -2 -2 -2 -2 -2 -1 -1 -0 -0 0 1 1 1 1 2 2 2 1 2
-0 0 0 -1 -3 -3 -3 -3 -3 -4 -4 -3 -3 -3 -3 -3 -4 -3 -3 -2 -2 -1 -0 1 2 2 2 1 1 0 -0 -1 -1 -1 -0 -0 0 1 1 1 -1 -3 -4 -5 -4 -3 -3 -2 -3 -2 -2 -2 -2 -2 -1 -1 -1 -0 -0 1 1 1 1 1 1 1 1 -0 0
-2 -2 -2 -2 -3 -3 -2 -3 -4 -4 -4 -4 -4 -4 -4 -3 -2 -1 -0 -0 0 0 0 0 1 1 1 1 0 -0 -1 -1 -0 -0 -0 -0 -0 0 1 1 -0 -2 -3 -4 -4 -3 -2 -2 -2 -2 -2 -2 -1 -1 -1 -0 -0 0 1 2 2 2 2 1 0 0 -0 -1 -0
Height
5664 5664 5664 5664 5663 5663 5663 5663 5663 5662 5662 5662 5662 5663 5663 5663 5663 5663 5663 5663 5663 5663 5663 5664 5664 5664 5664 5665 5666 5667 5668 5669 5670 5672 5673 5674 5675 5676 5677 5678 5680 5681 5683 5684 5685 5686 5687 5688 5690 5693 5695 5695 5695 5697 5698 5698 5697 5697 5698 5698 5698 5698 5699 5700 5701 5702 5703 5704 5704
5663 5662 5662 5662 5662 5662 5662 5662 5662 5661 5661 5661 5661 5661 5661 5661 5661 5661 5661 5661 5661 5661 5662 5662 5663 5663 5663 5664 5665 5666 5667 5668 5669 5671 5672 5673 5674 5675 5676 5677 5679 5680 5681 5683 5683 5684 5685 5687 5688 5690 5691 5692 5693 5693 5695 5695 5695 5696 5696 5697 5696 5697 5697 5698 5698 5700 5701 5702 5703
5661 5661 5661 5661 5661 5661 5661 5661 5660 5660 5660 5660 5660 5660 5660 5660 5660 5660 5659 5659 5659 5660 5660 5661 5661 5662 5663 5663 5664 5665 5667 5668 5669 5670 5671 5672 5673 5674 5675 5676 5678 5679 5680 5681 5682 5683 5684 5685 5686 5687 5688 5689 5690 5691 5692 5693 5694 5695 5695 5694 5694 5694 5695 5695 5696 5697 5698 5699 5701
5659 5659 5659 5659 5659 5660 5659 5659 5659 5659 5659 5659 5658 5658 5658 5658 5658 5658 5658 5658 5658 5658 5659 5659 5660 5661 5661 5662 5663 5664 5665 5666 5668 5669 5671 5672 5673 5673 5674 5675 5676 5677 5678 5680 5681 5682 5683 5683 5684 5685 5686 5687 5688 5689 5690 5692 5693 5694 5693 5692 5692 5693 5693 5693 5694 5695 5696 5698 5699
5658 5658 5658 5658 5658 5658 5658 5658 5658 5658 5658 5658 5658 5658 5658 5658 5658 5658 5658 5657 5657 5657 5658 5658 5658 5659 5660 5661 5662 5663 5664 5665 5667 5668 5670 5671 5672 5672 5673 5673 5674 5676 5677 5678 5679 5680 5681 5682 5683 5683 5684 5685 5686 5686 5688 5689 5690 5691 5691 5690 5691 5691 5692 5692 5692 5693 5694 5695 5697
5656 5656 5656 5656 5656 5656 5656 5656 5657 5657 5656 5656 5656 5657 5657 5657 5656 5656 5656 5656 5656 5656 5657 5657 5657 5658 5658 5659 5661 5662 5663 5664 5666 5667 5668 5670 5671 5672 5672 5673 5673 5675 5677 5678 5678 5679 5680 5680 5681 5682 5683 5683 5685 5685 5686 5686 5687 5688 5688 5688 5689 5689 5690 5690 5690 5691 5692 5693 5695
5655 5655 5655 5655 5655 5655 5655 5655 5655 5655 5655 5655 5655 5655 5655 5655 5655 5655 5655 5655 5655 5655 5656 5656 5656 5657 5658 5658 5660 5661 5662 5663 5665 5666 5668 5669 5670 5670 5671 5672 5673 5674 5676 5677 5678 5678 5679 5679 5680 5680 5681 5682 5683 5683 5683 5684 5685 5686 5686 5686 5687 5688 5688 5688 5689 5690 5691 5692 5693
5653 5653 5653 5653 5653 5653 5653 5653 5653 5653 5653 5653 5653 5653 5653 5653 5653 5653 5653 5653 5653 5653 5654 5655 5656 5656 5657 5659 5660 5660 5661 5663 5664 5665 5666 5667 5668 5669 5669 5670 5671 5673 5674 5675 5677 5678 5678 5678 5678 5679 5680 5680 5681 5681 5682 5682 5683 5684 5685 5685 5686 5686 5687 5688 5688 5689 5689 5690 5691
5652 5652 5652 5652 5652 5652 5652 5652 5652 5652 5652 5652 5652 5652 5652 5652 5652 5652 5652 5652 5652 5652 5653 5655 5656 5656 5657 5658 5659 5660 5660 5661 5663 5663 5664 5665 5666 5667 5668 5669 5670 5671 5673 5674 5675 5676 5677 5678 5678 5678 5678 5679 5679 5680 5680 5681 5683 5683 5684 5684 5684 5685 5686 5686 5687 5688 5688 5689 5690
5650 5650 5650 5650 5650 5650 5650 5650 5650 5650 5650 5650 5650 5650 5650 5650 5650 5650 5650 5651 5651 5652 5654 5655 5656 5656 5656 5657 5658 5659 5659 5660 5661 5662 5663 5663 5664 5665 5667 5668 5669 5670 5671 5672 5673 5674 5675 5676 5677 5677 5677 5678 5678 5678 5679 5680 5682 5683 5683 5683 5684 5684 5685 5685 5686 5687 5687 5688 5688
5649 5649 5649 5649 5649 5649 5649 5649 5648 5648 5648 5648 5648 5648 5648 5649 5649 5649 5649 5649 5651 5652 5652 5653 5654 5654 5655 5656 5656 5657 5658 5659 5660 5661 5661 5662 5663 5664 5665 5666 5668 5669 5670 5671 5672 5673 5674 5675 5675 5676 5676 5676 5677 5677 5678 5679 5680 5681 5682 5682 5683 5683 5684 5684 5685 5685 5686 5686 5687
5648 5648 5648 5648 5648 5648 5648 5647 5647 5647 5647 5647 5647 5647 5647 5647 5648 5648 5648 5648 5649 5650 5650 5652 5653 5653 5653 5653 5654 5655 5656 5657 5658 5659 5659 5660 5661 5662 5663 5665 5666 5667 5668 5669 5670 5671 5673 5673 5674 5674 5675 5675 5675 5676 5677 5678 5679 5679 5680 5681 5681 5682 5682 5683 5683 5684 5684 5685 5685
5646 5646 5646 5646 5646 5646 5646 5646 5646 5646 5646 5646 5646 5646 5646 5646 5646 5646 5647 5647 5648 5648 5649 5650 5651 5651 5651 5651 5652 5653 5654 5655 5656 5657 5658 5658 5659 5660 5662 5663 5664 5665 5666 5667 5668 5670 5671 5672 5672 5673 5673 5674 5674 5675 5676 5676 5677 5678 5678 5679 5680 5681 5681 5682 5682 5683 5683 5683 5684
5645 5645 5645 5645 5645 5645 5645 5645 5644 5644 5644 5644 5644 5644 5644 5645 5645 5645 5645 5646 5646 5646 5647 5648 5649 5650 5650 5650 5650 5651 5652 5653 5654 5655 5656 5657 5658 5659 5660 5661 5662 5663 5664 5665 5666 5668 5669 5669 5670 5671 5672 5672 5673 5673 5674 5675 5676 5677 5678 5679 5679 5680 5680 5681 5681 5681 5681 5682 5682
5643 5644 5644 5643 5643 5643 5643 5643 5643 5643 5643 5643 5643 5643 5643 5643 5643 5644 5644 5644 5644 5645 5645 5646 5646 5647 5648 5648 5648 5649 5649 5650 5652 5653 5654 5655 5656 5657 5658 5659 5660 5661 5662 5663 5663 5665 5666 5667 5667 5668 5669 5670 5671 5672 5673 5673 5674 5676 5677 5677 5677 5678 5678 5679 5679 5679 5679 5680 5680
5642 5642 5642 5642 5642 5642 5642 5642 5642 5642 5642 5642 5642 5642 5642 5642 5642 5643 5643 5643 5643 5643 5644 5644 5644 5645 5646 5646 5647 5647 5648 5649 5650 5651 5652 5653 5654 5655 5656 5658 5658 5659 5660 5661 5661 5662 5663 5663 5664 5666 5667 5668 5669 5670 5670 5671 5672 5673 5674 5674 5674 5675 5676 5676 5677 5677 5677 5677 5678
5640 5641 5641 5641 5641 5641 5641 5641 5641 5641 5641 5641 5641 5641 5641 5641 5641 5641 5641 5642 5642 5642 5642 5643 5643 5643 5644 5645 5645 5646 5647 5647 5648 5649 5650 5651 5652 5653 5654 5655 5657 5658 5658 5659 5659 5660 5661 5662 5663 5664 5665 5666 5667 5667 5668 5668 5669 5670 5670 5671 5671 5672 5673 5673 5674 5674 5674 5674 5675
5638 5639 5639 5639 5639 5639 5639 5639 5639 5639 5639 5640 5640 5640 5640 5640 5640 5640 5640 5640 5641 5641 5641 5641 5642 5642 5643 5643 5644 5644 5645 5646 5647 5648 5648 5649 5650 5651 5652 5653 5655 5656 5657 5658 5658 5659 5659 5660 5661 5662 5663 5663 5664 5665 5665 5666 5667 5667 5668 5668 5668 5669 5670 5670 5671 5671 5671 5672 5672
5637 5637 5638 5638 5638 5638 5638 5638 5638 5638 5638 5638 5638 5638 5639 5639 5639 5639 5639 5639 5639 5640 5640 5640 5641 5641 5642 5642 5643 5643 5644 5644 5645 5646 5647 5648 5648 5649 5651 5652 5653 5654 5655 5655 5656 5657 5658 5659 5659 5660 5661 5661 5662 5663 5663 5663 5664 5665 5665 5666 5667 5667 5667 5668 5668 5668 5669 5669 5669
5635 5635 5636 5636 5637 5637 5637 5637 5637 5637 5637 5637 5637 5638 5638 5638 5638 5638 5638 5638 5638 5639 5639 5639 5640 5640 5641 5641 5642 5642 5643 5643 5644 5645 5645 5646 5647 5648 5649 5650 5651 5652 5652 5653 5654 5655 5655 5656 5657 5658 5658 5659 5660 5660 5661 5661 5662 5663 5663 5664 5664 5664 5665 5665 5666 5666 5666 5666 5667
5634 5634 5635 5635 5635 5635 5635 5636 5636 5636 5636 5636 5636 5636 5637 5637 5637 5637 5638 5638 5638 5638 5638 5638 5639 5639 5640 5640 5641 5641 5642 5642 5643 5644 5644 5645 5645 5646 5647 5648 5648 5649 5650 5651 5652 5653 5653 5653 5654 5655 5656 5656 5657 5658 5658 5659 5659 5660 5660 5661 5661 5662 5662 5662 5663 5663 5663 5664 5664
5633 5633 5634 5634 5634 5634 5634 5634 5634 5634 5635 5635 5635 5635 5636 5636 5636 5636 5636 5637 5637 5637 5637 5638 5638 5638 5638 5639 5639 5640 5641 5641 5642 5643 5643 5644 5644 5645 5645 5646 5647 5648 5648 5649 5650 5651 5651 5652 5652 5653 5653 5654 5655 5655 5656 5656 5657 5657 5658 5658 5658 5658 5659 5659 5660 5661 5661 5662 5662
5632 5632 5633 5633 5633 5633 5633 5633 5633 5633 5634 5634 5634 5635 5635 5635 5635 5635 5635 5636 5636 5636 5636 5637 5637 5638 5638 5638 5638 5639 5640 5640 5641 5642 5642 5643 5643 5643 5644 5644 5645 5646 5647 5647 5648 5649 5649 5650 5651 5651 5652 5652 5653 5653 5654 5654 5655 5655 5655 5655 5656 5656 5656 5657 5658 5658 5659 5659 5659
5630 5631 5631 5632 5632 5632 5632 5632 5632 5633 5633 5633 5633 5633 5634 5634 5634 5634 5635 5635 5635 5635 5636 5636 5636 5637 5637 5637 5638 5638 5639 5639 5640 5640 5641 5641 5642 5642 5643 5643 5644 5644 5645 5646 5646 5647 5647 5648 5649 5649 5650 5651 5651 5652 5652 5652 5653 5653 5653 5653 5653 5654 5654 5654 5655 5655 5656 5656 5656
5629 5629 5629 5630 5630 5630 5631 5631 5631 5631 5632 5632 5632 5633 5633 5633 5633 5633 5634 5634 5634 5635 5635 5635 5636 5636 5636 5637 5637 5638 5638 5638 5639 5639 5640 5640 5641 5641 5642 5642 5643 5643 5644 5644 5644 5645 5645 5646 5647 5648 5648 5649 5649 5650 5650 5650 5650 5651 5651 5651 5652 5652 5652 5652 5652 5652 5653 5653 5653
5627 5627 5628 5628 5628 5629 5629 5629 5630 5630 5631 5631 5631 5631 5632 5632 5632 5633 5633 5633 5634 5634 5634 5634 5635 5635 5636 5636 5636 5637 5637 5638 5638 5638 5639 5639 5640 5640 5641 5641 5642 5642 5642 5643 5643 5644 5644 5645 5645 5646 5647 5647 5648 5648 5648 5648 5649 5649 5649 5649 5649 5650 5650 5650 5650 5650 5651 5651 5651
5625 5626 5626 5627 5627 5628 5628 5628 5628 5629 5629 5629 5630 5630 5631 5631 5631 5632 5632 5633 5633 5633 5633 5634 5634 5634 5635 5635 5636 5636 5636 5637 5637 5637 5638 5638 5638 5639 5639 5640 5640 5640 5641 5641 5642 5643 5643 5643 5644 5644 5645 5645 5646 5646 5647 5647 5647 5647 5647 5647 5648 5648 5648 5648 5648 5649 5649 5649 5649
5624 5624 5625 5625 5626 5626 5627 5627 5627 5628 5628 5628 5629 5629 5629 5630 5630 5631 5631 5632 5632 5632 5633 5633 5633 5633 5634 5634 5635 5635 5635 5636 5636 5636 5637 5637 5638 5638 5638 5638 5639 5639 5639 5640 5640 5641 5642 5642 5643 5643 5643 5643 5644 5644 5644 5645 5645 5645 5646 5646 5646 5646 5646 5647 5647 5647 5647 5648 5648
5623 5623 5623 5624 5624 5625 5625 5625 5626 5626 5627 5627 5628 5628 5628 5629 5629 5630 5630 5630 5631 5631 5631 5632 5632 5633 5633 5633 5633 5634 5634 5634 5635 5635 5636 5636 5636 5637 5637 5637 5638 5638 5638 5638 5639 5639 5640 5640 5641 5641 5642 5642 5642 5643 5643 5643 5644 5644 5644 5645 5645 5645 5645 5646 5646 5647 5647 5647 5648
5622 5622 5622 5623 5623 5623 5623 5624 5624 5625 5625 5626 5627 5627 5628 5628 5628 5628 5629 5629 5629 5630 5630 5630 5631 5631 5632 5632 5632 5633 5633 5633 5633 5634 5634 5635 5635 5635 5636 5636 5636 5636 5637 5637 5637 5638 5638 5638 5639 5639 5640 5640 5641 5641 5642 5642 5643 5643 5643 5644 5644 5645 5645 5646 5646 5646 5647 5647 5647
5620 5621 5621 5621 5621 5622 5622 5623 5623 5624 5624 5625 5625 5626 5626 5626 5627 5627 5628 5628 5628 5628 5629 5629 5630 5630 5630 5631 5631 5631 5632 5632 5632 5633 5633 5633 5634 5634 5634 5634 5635 5635 5635 5635 5636 5636 5636 5637 5637 5637 5638 5638 5639 5639 5640 5641 5641 5642 5643 5643 5643 5644 5644 5644 5645 5644 5644 5644 5644
5619 5619 5620 5620 5620 5620 5621 5621 5622 5622 5623 5623 5624 5624 5624 5625 5625 5626 5626 5627 5627 5627 5628 5628 5628 5628 5629 5629 5630 5630 5630 5631 5631 5632 5632 5632 5633 5633 5633 5633 5633 5633 5633 5634 5634 5634 5634 5634 5635 5635 5635 5636 5637 5637 5638 5639 5640 5640 5640 5640 5640 5640 5641 5641 5641 5641 5641 5641 5640
5618 5618 5618 5618 5619 5619 5619 5620 5620 5621 5621 5622 5622 5623 5623 5623 5624 5624 5625 5625 5625 5626 5626 5627 5627 5627 5628 5628 5628 5629 5629 5630 5630 5630 5631 5631 5632 5632 5632 5632 5632 5632 5632 5632 5632 5632 5632 5632 5633 5633 5633 5633 5634 5635 5636 5637 5638 5638 5638 5638 5638 5638 5638 5638 5638 5638 5638 5638 5638
5617 5617 5617 5617 5618 5618 5618 5618 5619 5619 5619 5620 5620 5621 5621 5622 5622 5623 5623 5623 5624 5624 5625 5625 5626 5626 5626 5627 5627 5628 5628 5629 5629 5630 5630 5630 5630 5631 5631 5631 5630 5630 5630 5630 5630 5630 5630 5630 5630 5631 5631 5632 5632 5633 5634 5635 5635 5635 5635 5635 5635 5635 5635 5636 5636 5636 5636 5636 5636
5615 5615 5616 5616 5616 5616 5617 5617 5617 5618 5618 5618 5619 5619 5620 5620 5621 5621 5622 5622 5622 5623 5623 5623 5624 5625 5625 5626 5626 5627 5628 5628 5628 5629 5629 5629 5629 5629 5629 5629 5628 5628 5628 5628 5628 5628 5628 5628 5628 5629 5629 5630 5630 5631 5632 5632 5633 5633 5633 5633 5633 5633 5633 5633 5633 5633 5633 5633 5633
5613 5614 5614 5614 5615 5615 5615 5616 5616 5616 5616 5617 5617 5618 5618 5618 5619 5619 5620 5620 5621 5621 5622 5622 5623 5623 5624 5625 5626 5626 5627 5628 5628 5628 5628 5627 5627 5627 5627 5627 5627 5626 5626 5626 5626 5626 5626 5626 5627 5627 5628 5628 5628 5629 5629 5630 5630 5631 5631 5631 5631 5631 5631 5631 5631 5631 5631 5631 5631
5612 5612 5613 5613 5613 5613 5614 5614 5614 5615 5615 5615 5616 5616 5616 5617 5618 5618 5618 5619 5619 5620 5620 5621 5622 5623 5623 5624 5625 5626 5626 5626 5626 5625 5625 5625 5625 5625 5625 5625 5624 5624 5624 5624 5624 5624 5624 5624 5625 5625 5626 5626 5626 5627 5627 5628 5628 5628 5628 5628 5628 5628 5628 5628 5628 5628 5628 5628 5628
5610 5611 5611 5611 5611 5612 5612 5613 5613 5613 5613 5614 5614 5614 5615 5615 5616 5617 5617 5618 5618 5618 5619 5620 5621 5622 5623 5623 5623 5623 5623 5623 5623 5623 5623 5623 5623 5623 5623 5623 5623 5622 5621 5621 5622 5622 5622 5622 5623 5623 5623 5624 5624 5624 5625 5625 5626 5626 5626 5626 5626 5626 5626 5626 5626 5626 5626 5626 5626
5609 5609 5609 5610 5610 5610 5611 5611 5611 5612 5612 5613 5613 5613 5614 5614 5615 5615 5616 5616 5617 5618 5618 5619 5620 5621 5621 5621 5621 5621 5621 5621 5621 5621 5621 5621 5621 5622 5622 5621 5621 5620 5619 5619 5619 5619 5620 5620 5620 5621 5621 5621 5622 5622 5623 5623 5623 5624 5624 5624 5624 5624 5624 5623 5623 5623 5623 5623 5623
5607 5608 5608 5608 5608 5609 5609 5610 5610 5610 5611 5611 5611 5612 5613 5613 5613 5614 5615 5615 5616 5617 5617 5618 5618 5619 5619 5619 5619 5619 5619 5619 5619 5619 5619 5620 5620 5620 5620 5619 5619 5618 5618 5617 5617 5618 5618 5618 5618 5618 5619 5619 5619 5620 5620 5621 5621 5621 5622 5622 5622 5622 5622 5621 5621 5621 5621 5621 5620
5605 5606 5606 5607 5607 5608 5608 5608 5608 5608 5609 5610 5610 5611 5611 5612 5613 5614 5614 5615 5615 5615 5616 5616 5617 5617 5618 5618 5618 5618 5618 5618 5618 5618 5618 5618 5618 5618 5618 5618 5617 5617 5616 5615 5615 5616 5616 5616 5616 5616 5617 5617 5617 5618 5618 5618 5618 5619 5619 5619 5619 5619 5619 5619 5619 5619 5618 5618 5618